Location: New Canada
(47.1017°N, 68.5042°W)
Time: 22:09:45
(UTC+00:00)

RS-44 - Pass Details

Date: 10 April 2023
Orbit: 1175 x 1510 km, 82.5° (Epoch: 02 June)

Event Time Altitude Azimuth Distance (km) Brightness Sun altitude
Rises 05:24:23 0° 348° (NNW) 4,482 ? -34.0°
Reaches altitude 10° 05:27:12 10° 345° (NNW) 3,542 ? -33.9°
Maximum altitude 05:35:34 61° 268° (W) 1,653 ? -33.4°
Enters shadow 05:35:42 61° 265° (W) 1,654 ? -33.4°
